QPF
0.00 0.00 0.00 0.00 0.00 0.00 0.00 0.00 0.00 0.00 0.00 0.00 0.00 0.00 0.00 0.00 0.00 0.00 0.00 0.00 0.00 0.00 0.00 0.00 0.00 0.00 0.00 0.00 0.00 0.00 0.00 0.00 0.00 0.00 0.00 0.00 0.00 0.00 0.00 0.01 0.05 0.04 0.03 0.02
0.00 0.00 0.00 0.00 0.00 0.00 0.00 0.00 0.00 0.00 0.00 0.00 0.00 0.00 0.00 0.00 0.00 0.00 0.00 0.00 0.00 0.00 0.00 0.00 0.00 0.00 0.00 0.00 0.00 0.00 0.00 0.00 0.00 0.00 0.00 0.00 0.00 0.00 0.00 0.03 0.06 0.04 0.01 0.00
0.00 0.00 0.00 0.00 0.00 0.00 0.00 0.00 0.00 0.00 0.00 0.00 0.00 0.00 0.00 0.00 0.00 0.00 0.00 0.00 0.00 0.00 0.00 0.00 0.00 0.00 0.00 0.00 0.00 0.00 0.00 0.00 0.00 0.00 0.00 0.00 0.00 0.00 0.01 0.02 0.06 0.06 0.02 0.02
0.00 0.00 0.00 0.00 0.00 0.00 0.00 0.00 0.00 0.00 0.00 0.00 0.00 0.00 0.00 0.00 0.00 0.00 0.00 0.00 0.00 0.00 0.00 0.00 0.00 0.00 0.00 0.00 0.00 0.00 0.00 0.00 0.00 0.00 0.00 0.00 0.00 0.01 0.02 0.03 0.03 0.03 0.04 0.03
0.00 0.00 0.00 0.00 0.00 0.00 0.00 0.00 0.00 0.00 0.00 0.00 0.00 0.00 0.00 0.00 0.00 0.00 0.00 0.00 0.00 0.00 0.00 0.00 0.00 0.00 0.00 0.00 0.00 0.00 0.00 0.00 0.00 0.00 0.00 0.00 0.00 0.00 0.01 0.01 0.01 0.01 0.04 0.04
0.00 0.00 0.00 0.00 0.00 0.00 0.00 0.00 0.00 0.00 0.00 0.00 0.00 0.00 0.00 0.00 0.00 0.00 0.00 0.00 0.00 0.00 0.00 0.00 0.00 0.00 0.00 0.00 0.00 0.00 0.00 0.00 0.00 0.00 0.00 0.00 0.01 0.00 0.00 0.00 0.00 0.00 0.00 0.01
0.00 0.00 0.00 0.00 0.00 0.00 0.00 0.00 0.00 0.00 0.00 0.00 0.00 0.00 0.00 0.00 0.00 0.00 0.00 0.00 0.00 0.00 0.00 0.00 0.00 0.00 0.00 0.00 0.00 0.00 0.00 0.00 0.00 0.00 0.00 0.00 0.00 0.00 0.00 0.00 0.00 0.00 0.00 0.00
0.00 0.00 0.00 0.00 0.00 0.00 0.00 0.00 0.00 0.00 0.00 0.00 0.00 0.00 0.00 0.00 0.00 0.00 0.00 0.00 0.00 0.00 0.00 0.00 0.00 0.00 0.00 0.00 0.00 0.00 0.00 0.00 0.00 0.00 0.00 0.00 0.00 0.00 0.00 0.00 0.00 0.00 0.00 0.00
0.00 0.00 0.00 0.00 0.00 0.00 0.00 0.00 0.00 0.00 0.00 0.00 0.00 0.00 0.00 0.00 0.00 0.00 0.00 0.00 0.00 0.00 0.00 0.00 0.00 0.01 0.00 0.00 0.00 0.00 0.00 0.00 0.00 0.00 0.00 0.00 0.00 0.00 0.00 0.00 0.00 0.00 0.00 0.00
0.00 0.00 0.00 0.00 0.00 0.00 0.00 0.00 0.00 0.00 0.00 0.00 0.00 0.00 0.00 0.00 0.00 0.00 0.00 0.00 0.00 0.00 0.00 0.00 0.00 0.00 0.00 0.00 0.00 0.00 0.00 0.00 0.00 0.00 0.00 0.00 0.00 0.00 0.00 0.00 0.00 0.00 0.00 0.00
0.00 0.00 0.00 0.00 0.00 0.00 0.00 0.00 0.00 0.00 0.00 0.00 0.00 0.00 0.00 0.00 0.00 0.00 0.00 0.00 0.00 0.00 0.00 0.02 0.01 0.00 0.00 0.00 0.00 0.00 0.00 0.00 0.00 0.00 0.00 0.00 0.00 0.00 0.00 0.00 0.00 0.00 0.00 0.00
0.00 0.00 0.00 0.00 0.00 0.00 0.00 0.00 0.00 0.00 0.00 0.00 0.00 0.00 0.00 0.00 0.00 0.00 0.00 0.00 0.00 0.00 0.02 0.03 0.01 0.00 0.00 0.00 0.00 0.00 0.00 0.00 0.00 0.00 0.00 0.00 0.00 0.00 0.00 0.00 0.00 0.00 0.00 0.00
0.00 0.00 0.00 0.00 0.00 0.00 0.00 0.00 0.00 0.00 0.00 0.00 0.00 0.00 0.00 0.00 0.00 0.00 0.00 0.00 0.00 0.00 0.02 0.01 0.00 0.00 0.00 0.00 0.00 0.00 0.00 0.00 0.00 0.00 0.00 0.00 0.00 0.00 0.00 0.00 0.00 0.00 0.00 0.00
0.00 0.00 0.00 0.00 0.00 0.00 0.00 0.00 0.00 0.00 0.00 0.00 0.00 0.00 0.00 0.00 0.00 0.00 0.00 0.03 0.03 0.02 0.01 0.00 0.00 0.00 0.00 0.00 0.00 0.00 0.00 0.00 0.00 0.00 0.00 0.00 0.00 0.00 0.00 0.00 0.00 0.00 0.00 0.00
0.00 0.00 0.00 0.00 0.00 0.00 0.00 0.00 0.00 0.00 0.00 0.00 0.00 0.00 0.01 0.00 0.00 0.00 0.01 0.04 0.05 0.00 0.00 0.00 0.00 0.00 0.00 0.00 0.00 0.00 0.00 0.00 0.00 0.00 0.00 0.00 0.00 0.00 0.00 0.00 0.00 0.00 0.00 0.00
0.00 0.00 0.00 0.00 0.01 0.02 0.00 0.00 0.00 0.00 0.00 0.00 0.00 0.00 0.00 0.00 0.00 0.00 0.00 0.00 0.00 0.00 0.00 0.00 0.00 0.00 0.00 0.00 0.00 0.00 0.00 0.00 0.00 0.00 0.00 0.00 0.00 0.00 0.00 0.00 0.00 0.00 0.00 0.00
0.00 0.00 0.00 0.00 0.00 0.01 0.02 0.01 0.00 0.00 0.00 0.00 0.00 0.00 0.00 0.01 0.01 0.03 0.03 0.00 0.00 0.01 0.00 0.00 0.00 0.00 0.00 0.00 0.00 0.00 0.00 0.00 0.00 0.00 0.00 0.00 0.00 0.00 0.00 0.00 0.00 0.00 0.00 0.00
0.00 0.00 0.00 0.00 0.01 0.01 0.00 0.01 0.00 0.00 0.00 0.00 0.00 0.00 0.00 0.00 0.01 0.05 0.05 0.03 0.03 0.02 0.01 0.00 0.00 0.00 0.00 0.00 0.00 0.00 0.00 0.00 0.00 0.00 0.00 0.00 0.00 0.00 0.00 0.00 0.00 0.00 0.00 0.00
0.00 0.00 0.00 0.00 0.00 0.00 0.00 0.00 0.00 0.00 0.00 0.00 0.00 0.00 0.00 0.00 0.01 0.02 0.01 0.01 0.01 0.02 0.01 0.00 0.00 0.00 0.00 0.00 0.00 0.00 0.00 0.00 0.00 0.00 0.00 0.00 0.00 0.00 0.00 0.00 0.00 0.00 0.00 0.00
0.00 0.00 0.00 0.00 0.00 0.00 0.00 0.00 0.00 0.00 0.00 0.00 0.00 0.00 0.00 0.00 0.01 0.00 0.00 0.00 0.00 0.00 0.00 0.00 0.00 0.00 0.00 0.00 0.00 0.00 0.00 0.00 0.00 0.00 0.00 0.00 0.00 0.00 0.00 0.00 0.00 0.00 0.00 0.00
0.00 0.00 0.00 0.00 0.00 0.00 0.00 0.00 0.00 0.00 0.00 0.00 0.00 0.00 0.00 0.00 0.00 0.00 0.00 0.00 0.00 0.00 0.00 0.00 0.00 0.00 0.00 0.00 0.00 0.00 0.00 0.00 0.00 0.00 0.00 0.00 0.00 0.00 0.00 0.00 0.00 0.00 0.00 0.00
0.00 0.00 0.00 0.00 0.00 0.00 0.00 0.00 0.00 0.00 0.00 0.00 0.00 0.00 0.00 0.00 0.00 0.00 0.00 0.00 0.00 0.00 0.00 0.00 0.00 0.00 0.00 0.00 0.00 0.00 0.00 0.00 0.00 0.00 0.00 0.00 0.00 0.00 0.00 0.00 0.00 0.00 0.00 0.00
0.00 0.00 0.00 0.00 0.00 0.00 0.00 0.00 0.00 0.00 0.00 0.00 0.00 0.00 0.00 0.00 0.00 0.00 0.00 0.00 0.00 0.00 0.00 0.00 0.00 0.00 0.00 0.00 0.00 0.00 0.00 0.00 0.00 0.00 0.00 0.00 0.00 0.00 0.00 0.00 0.00 0.00 0.00 0.00
0.00 0.00 0.00 0.00 0.00 0.00 0.00 0.00 0.00 0.00 0.00 0.00 0.00 0.00 0.00 0.00 0.00 0.00 0.00 0.00 0.00 0.00 0.00 0.00 0.00 0.00 0.00 0.00 0.00 0.00 0.00 0.00 0.00 0.00 0.00 0.00 0.00 0.00 0.00 0.00 0.00 0.00 0.00 0.00
0.00 0.00 0.00 0.00 0.00 0.00 0.00 0.00 0.00 0.00 0.00 0.00 0.00 0.00 0.00 0.00 0.00 0.00 0.00 0.00 0.00 0.00 0.00 0.00 0.00 0.00 0.00 0.00 0.00 0.00 0.00 0.00 0.00 0.00 0.00 0.00 0.00 0.00 0.00 0.00 0.00 0.00 0.00 0.00
0.00 0.00 0.00 0.00 0.00 0.00 0.00 0.00 0.00 0.00 0.00 0.00 0.00 0.00 0.00 0.00 0.00 0.00 0.00 0.00 0.00 0.00 0.00 0.00 0.00 0.00 0.00 0.00 0.00 0.00 0.00 0.00 0.00 0.00 0.00 0.00 0.00 0.00 0.00 0.00 0.00 0.00 0.00 0.00
MSLP
1009.41 1009.50 1009.04 1009.35 1009.54 1009.15 1009.44 1009.59 1009.48 1009.35 1008.84 1008.85 1009.36 1009.17 1008.93 1008.94 1009.08 1009.09 1009.55 1009.41 1009.42 1009.41 1008.99 1009.28 1009.45 1009.78 1010.07 1010.28 1010.44 1010.78 1011.48 1011.93 1012.19 1012.59 1012.79 1012.79 1012.66 1012.61 1012.71 1012.56 1012.42 1012.60 1012.73 1012.52
1009.77 1009.44 1009.53 1009.40 1009.43 1009.33 1009.29 1009.50 1009.58 1009.27 1008.91 1009.34 1009.74 1009.63 1009.12 1009.46 1009.39 1009.26 1009.36 1009.80 1009.75 1009.60 1009.21 1009.27 1009.60 1009.94 1010.37 1010.44 1010.47 1010.93 1011.23 1011.59 1012.16 1012.56 1012.62 1012.64 1012.74 1012.51 1012.66 1011.96 1012.27 1012.62 1012.46 1012.48
1009.01 1008.91 1009.07 1009.22 1009.35 1009.47 1009.58 1009.43 1009.48 1009.42 1009.45 1009.72 1009.95 1010.14 1009.70 1009.06 1009.05 1009.28 1009.32 1009.26 1009.66 1009.55 1009.58 1009.55 1009.91 1010.07 1010.43 1010.56 1010.90 1011.48 1011.78 1011.95 1011.97 1012.10 1011.99 1012.18 1012.03 1012.25 1013.07 1013.68 1013.86 1013.61 1013.02 1012.96
1008.40 1008.15 1008.43 1008.84 1009.17 1009.36 1009.58 1009.39 1009.33 1009.63 1010.06 1010.60 1010.36 1010.70 1010.16 1009.44 1009.09 1008.97 1009.14 1009.47 1009.50 1009.68 1009.63 1009.86 1010.14 1010.34 1010.56 1010.76 1011.05 1011.35 1011.64 1011.97 1012.08 1011.98 1012.15 1012.47 1013.02 1013.69 1014.61 1014.71 1014.44 1014.00 1013.65 1013.39
1007.62 1007.65 1008.03 1008.32 1008.47 1008.96 1009.44 1009.42 1009.69 1009.94 1010.65 1011.09 1011.26 1011.50 1010.15 1009.74 1009.38 1009.03 1008.72 1009.09 1009.37 1009.53 1009.40 1009.85 1010.18 1010.60 1010.78 1011.05 1011.43 1011.84 1012.10 1012.40 1012.53 1012.43 1012.86 1013.31 1013.88 1014.60 1014.98 1014.84 1014.80 1014.88 1014.38 1013.97
1006.82 1006.80 1007.36 1007.10 1007.71 1008.37 1008.80 1009.53 1010.25 1011.13 1011.67 1011.99 1011.38 1011.39 1010.69 1009.98 1009.13 1008.82 1008.33 1008.25 1008.75 1009.65 1009.72 1009.99 1010.28 1010.63 1011.17 1011.72 1011.99 1012.24 1012.53 1013.03 1013.03 1013.11 1013.48 1013.77 1014.56 1015.05 1015.24 1015.38 1015.13 1015.19 1014.94 1014.84
1006.60 1006.77 1006.50 1006.55 1007.48 1008.21 1008.75 1009.64 1011.53 1012.50 1012.62 1012.25 1011.67 1011.63 1010.30 1009.02 1008.66 1008.70 1008.43 1008.57 1008.82 1009.28 1009.74 1009.74 1010.19 1010.98 1011.53 1012.07 1012.48 1012.58 1012.81 1013.56 1013.61 1013.67 1014.02 1014.37 1014.93 1015.18 1015.38 1015.32 1015.34 1015.27 1015.31 1015.25
1006.29 1006.50 1005.82 1005.86 1006.50 1007.48 1008.61 1009.54 1010.98 1011.63 1012.56 1012.54 1011.92 1010.98 1009.58 1008.93 1008.69 1008.53 1008.24 1008.24 1008.43 1008.99 1009.24 1009.69 1010.04 1010.79 1011.48 1012.15 1012.78 1013.01 1013.15 1013.62 1013.89 1014.10 1014.43 1014.64 1014.72 1014.92 1015.10 1015.22 1015.47 1015.52 1015.49 1015.30
1005.50 1005.24 1004.99 1005.04 1005.59 1006.56 1008.41 1009.08 1009.65 1011.15 1012.29 1012.44 1011.88 1010.71 1009.71 1009.10 1009.00 1008.66 1008.50 1008.36 1008.46 1008.58 1008.90 1009.46 1010.19 1010.74 1011.43 1012.14 1012.80 1013.04 1013.41 1013.87 1014.09 1014.23 1014.45 1014.68 1014.75 1014.88 1015.18 1015.33 1015.29 1015.30 1015.39 1015.36
1004.56 1004.79 1004.69 1004.91 1005.17 1006.19 1006.79 1008.08 1009.87 1011.35 1012.70 1013.08 1012.17 1011.46 1010.35 1009.75 1009.59 1009.36 1009.13 1008.67 1008.86 1009.09 1009.27 1009.87 1010.29 1010.91 1011.44 1012.26 1012.95 1013.42 1013.58 1013.96 1014.08 1014.22 1014.38 1014.66 1014.87 1015.03 1015.25 1015.33 1015.46 1015.43 1015.28 1015.06
1004.21 1004.61 1005.06 1004.82 1005.11 1005.87 1007.14 1008.20 1009.61 1010.70 1011.79 1012.35 1012.36 1011.26 1009.88 1009.86 1009.87 1009.93 1009.38 1008.87 1008.99 1009.33 1009.72 1010.20 1011.06 1011.66 1012.14 1012.77 1013.32 1013.61 1014.02 1014.29 1014.55 1014.76 1014.75 1015.00 1015.41 1015.42 1015.42 1015.56 1015.64 1015.64 1015.65 1015.54
1004.41 1005.16 1005.49 1005.21 1004.87 1005.00 1005.68 1007.40 1008.77 1010.39 1011.80 1011.96 1011.68 1010.74 1009.62 1009.78 1009.78 1009.64 1009.13 1008.93 1009.18 1009.71 1010.38 1010.65 1011.58 1012.31 1012.91 1013.58 1013.98 1014.38 1014.69 1014.98 1015.20 1015.17 1015.10 1015.23 1015.51 1015.59 1015.74 1015.86 1016.07 1016.08 1016.17 1016.17
1004.38 1005.52 1006.30 1005.90 1005.74 1005.49 1006.02 1006.98 1007.97 1009.26 1010.50 1011.35 1011.36 1010.49 1009.86 1009.93 1010.05 1009.91 1009.76 1009.32 1009.31 1010.06 1010.90 1011.77 1012.56 1013.13 1013.78 1014.18 1014.61 1014.94 1015.28 1015.59 1015.65 1015.60 1015.52 1015.68 1015.99 1016.21 1016.40 1016.48 1016.47 1016.53 1016.61 1016.60
1003.92 1005.61 1006.10 1006.33 1005.91 1005.82 1006.32 1006.71 1007.55 1008.48 1010.23 1010.62 1010.20 1009.96 1009.78 1009.94 1010.23 1010.38 1010.35 1009.86 1009.93 1010.46 1011.52 1012.49 1013.23 1013.67 1014.24 1014.58 1014.86 1015.37 1015.65 1015.76 1015.59 1015.88 1016.02 1016.48 1016.70 1016.85 1016.99 1017.10 1017.15 1017.25 1017.19 1016.89
1004.54 1006.02 1006.46 1006.47 1006.16 1006.02 1006.19 1006.45 1007.20 1008.01 1008.56 1009.08 1009.07 1009.22 1009.23 1009.66 1010.40 1010.66 1010.62 1010.62 1010.84 1011.69 1012.57 1013.44 1014.17 1014.62 1014.85 1015.37 1015.61 1015.78 1016.06 1016.36 1016.46 1016.55 1016.71 1017.33 1017.60 1017.69 1017.69 1017.72 1017.74 1017.55 1017.33 1017.07
1005.66 1007.06 1007.01 1007.53 1006.91 1006.65 1006.48 1006.54 1007.18 1007.87 1008.45 1008.83 1008.54 1008.94 1008.99 1010.00 1010.55 1011.22 1011.10 1011.63 1012.04 1013.06 1013.61 1014.67 1015.33 1015.67 1016.18 1016.52 1016.82 1016.92 1016.96 1017.25 1017.21 1017.32 1017.70 1018.08 1018.05 1017.86 1018.00 1017.88 1017.88 1017.67 1017.41 1017.07
1006.37 1007.40 1008.14 1008.74 1007.84 1007.45 1007.24 1006.98 1006.68 1007.70 1008.31 1008.76 1009.30 1008.99 1009.50 1010.62 1011.56 1012.17 1011.99 1012.69 1013.51 1014.12 1014.87 1015.51 1016.53 1017.15 1017.69 1017.74 1017.88 1017.96 1018.13 1018.06 1018.02 1018.22 1018.46 1018.59 1018.47 1018.32 1018.31 1018.26 1018.03 1017.69 1017.37 1016.89
1006.85 1007.79 1008.81 1009.41 1008.73 1008.30 1007.29 1006.82 1006.78 1007.58 1008.82 1009.01 1009.45 1010.10 1010.72 1011.57 1012.93 1013.65 1013.86 1014.02 1014.96 1015.75 1016.40 1016.57 1017.21 1017.89 1018.38 1018.70 1018.82 1019.16 1018.75 1018.75 1018.82 1018.71 1018.71 1018.77 1018.74 1018.67 1018.60 1018.45 1018.10 1017.61 1017.29 1016.91
1006.69 1007.69 1009.38 1009.86 1009.69 1008.78 1008.05 1007.50 1007.27 1007.41 1009.56 1009.66 1010.03 1010.88 1011.68 1012.43 1013.33 1015.59 1016.07 1016.17 1016.71 1017.45 1017.73 1017.77 1018.21 1018.94 1019.45 1019.69 1020.09 1019.91 1019.69 1019.44 1019.25 1019.35 1019.53 1019.48 1019.29 1019.01 1018.69 1018.32 1018.01 1017.61 1017.24 1016.70
1006.98 1007.62 1008.47 1010.00 1009.82 1008.79 1007.46 1007.01 1006.92 1007.47 1009.57 1010.08 1010.45 1011.16 1011.80 1012.73 1015.28 1017.57 1017.82 1017.83 1018.21 1018.43 1018.64 1019.17 1019.58 1019.95 1020.38 1020.96 1020.87 1020.38 1020.27 1020.33 1020.24 1020.13 1019.91 1019.69 1019.41 1019.05 1018.69 1018.34 1017.88 1017.42 1017.10 1016.35
1007.58 1008.25 1009.03 1009.89 1009.71 1008.63 1007.27 1007.15 1007.30 1008.50 1009.61 1010.18 1011.18 1012.31 1012.99 1014.36 1015.82 1017.85 1018.58 1018.89 1019.12 1019.46 1020.01 1020.40 1020.67 1021.16 1021.47 1021.50 1021.46 1021.09 1020.95 1020.93 1020.83 1020.51 1020.17 1019.73 1019.39 1019.11 1018.69 1018.14 1017.75 1017.24 1016.63 1016.04
1007.03 1008.14 1009.54 1009.82 1010.02 1009.28 1007.84 1007.60 1007.88 1008.66 1009.65 1010.76 1012.22 1013.52 1014.68 1015.88 1017.35 1018.51 1019.28 1019.75 1020.18 1020.56 1020.84 1021.20 1021.57 1021.99 1022.20 1022.06 1021.71 1021.72 1021.65 1021.36 1020.93 1020.48 1020.17 1019.87 1019.56 1019.20 1018.62 1018.21 1017.64 1017.06 1016.40 1015.70
1007.26 1007.55 1008.74 1009.81 1009.89 1009.38 1008.65 1008.64 1008.44 1009.04 1009.81 1012.12 1013.15 1014.68 1015.23 1016.81 1018.19 1019.26 1020.08 1020.59 1021.07 1021.48 1021.96 1022.35 1022.54 1022.62 1022.61 1022.41 1022.08 1021.77 1021.63 1021.42 1021.19 1020.96 1020.65 1020.19 1019.62 1019.08 1018.55 1018.00 1017.20 1016.59 1016.04 1015.50
1007.05 1007.18 1008.48 1009.51 1010.44 1010.13 1009.83 1009.84 1010.08 1010.52 1011.53 1013.02 1014.17 1015.45 1016.53 1017.61 1019.04 1020.03 1020.77 1021.51 1022.07 1022.46 1022.66 1022.79 1022.81 1022.77 1022.72 1022.60 1022.46 1022.39 1022.09 1021.84 1021.54 1021.05 1020.46 1019.88 1019.40 1018.70 1018.06 1017.41 1016.86 1016.33 1015.77 1015.21
1007.24 1007.59 1009.01 1010.42 1011.03 1011.00 1011.21 1011.30 1011.51 1012.54 1013.25 1014.27 1015.55 1016.53 1017.58 1018.41 1019.79 1020.67 1021.54 1022.10 1022.55 1022.91 1023.18 1023.34 1023.41 1023.35 1023.24 1022.98 1022.64 1022.40 1022.10 1021.78 1021.37 1020.82 1020.26 1019.67 1018.94 1018.20 1017.56 1017.01 1016.48 1015.95 1015.52 1015.12
1007.49 1007.76 1008.56 1009.51 1010.04 1010.26 1012.25 1012.85 1012.77 1013.48 1014.88 1015.81 1016.56 1018.02 1018.91 1019.44 1020.47 1021.38 1022.09 1022.63 1023.10 1023.43 1023.59 1023.58 1023.56 1023.48 1023.24 1022.85 1022.50 1022.15 1021.82 1021.46 1021.01 1020.41 1019.77 1019.16 1018.51 1017.91 1017.28 1016.59 1016.01 1015.64 1015.16 1014.66
Thickness
5578 5580 5598 5607 5613 5628 5628 5635 5644 5652 5671 5672 5668 5681 5694 5700 5706 5711 5713 5720 5728 5738 5751 5757 5763 5768 5771 5774 5775 5776 5773 5770 5773 5768 5765 5764 5764 5764 5761 5760 5759 5756 5754 5755
5569 5575 5595 5608 5616 5622 5624 5622 5632 5655 5664 5665 5656 5666 5688 5688 5697 5704 5711 5710 5718 5730 5742 5750 5752 5756 5758 5763 5766 5765 5765 5763 5761 5760 5759 5759 5757 5758 5755 5759 5753 5748 5747 5746
5569 5588 5597 5603 5607 5613 5615 5615 5626 5640 5651 5654 5652 5648 5670 5693 5698 5701 5708 5715 5716 5720 5728 5738 5742 5745 5748 5750 5750 5748 5748 5750 5753 5755 5756 5755 5756 5753 5744 5737 5734 5733 5735 5734
5577 5593 5595 5595 5599 5607 5604 5625 5634 5638 5629 5618 5649 5619 5655 5676 5688 5699 5704 5705 5710 5713 5722 5727 5728 5733 5737 5740 5739 5738 5738 5739 5741 5745 5744 5741 5735 5728 5719 5718 5718 5719 5719 5719
5582 5589 5591 5594 5604 5610 5606 5620 5624 5633 5621 5624 5629 5619 5641 5665 5674 5688 5702 5702 5702 5706 5713 5715 5721 5724 5727 5727 5727 5726 5725 5723 5724 5728 5725 5723 5718 5711 5707 5706 5705 5703 5704 5705
5588 5598 5596 5605 5609 5611 5614 5612 5607 5603 5602 5596 5621 5621 5627 5646 5670 5684 5699 5708 5705 5699 5702 5705 5711 5717 5715 5714 5715 5713 5712 5708 5708 5707 5705 5703 5698 5696 5692 5690 5689 5687 5686 5684
5585 5590 5603 5610 5600 5607 5607 5592 5565 5575 5581 5587 5611 5608 5630 5663 5672 5680 5688 5696 5696 5696 5696 5702 5704 5703 5702 5700 5700 5701 5700 5691 5691 5691 5688 5685 5679 5681 5679 5678 5676 5675 5672 5671
5570 5574 5598 5611 5605 5597 5596 5591 5569 5577 5574 5586 5607 5606 5632 5660 5667 5677 5682 5687 5689 5693 5699 5700 5701 5696 5693 5690 5687 5687 5686 5681 5679 5677 5673 5670 5669 5667 5668 5667 5664 5664 5662 5661
5583 5596 5614 5621 5622 5615 5598 5590 5606 5584 5586 5584 5596 5619 5637 5648 5656 5664 5669 5679 5684 5692 5696 5696 5691 5689 5686 5682 5678 5678 5673 5669 5668 5667 5664 5662 5661 5659 5656 5654 5654 5653 5650 5648
5601 5596 5617 5619 5622 5620 5613 5613 5587 5571 5570 5576 5589 5604 5612 5636 5643 5651 5659 5669 5674 5682 5687 5685 5685 5682 5679 5674 5668 5666 5664 5662 5661 5660 5657 5654 5652 5650 5648 5646 5643 5640 5639 5639
5611 5601 5607 5616 5610 5604 5603 5596 5591 5594 5587 5578 5578 5595 5625 5633 5640 5642 5653 5664 5668 5673 5676 5676 5670 5668 5666 5661 5658 5657 5655 5653 5651 5647 5644 5641 5640 5640 5638 5634 5631 5629 5627 5626
5610 5591 5592 5614 5628 5628 5623 5610 5604 5576 5590 5591 5590 5597 5635 5633 5639 5644 5657 5662 5663 5664 5663 5663 5658 5653 5651 5648 5646 5644 5643 5641 5638 5636 5637 5634 5630 5628 5625 5622 5617 5614 5610 5607
5607 5588 5578 5596 5610 5623 5623 5617 5612 5604 5599 5594 5585 5601 5629 5631 5635 5637 5644 5653 5659 5655 5652 5647 5644 5641 5639 5638 5637 5635 5633 5630 5629 5630 5628 5625 5621 5617 5613 5609 5606 5603 5598 5593
5618 5590 5591 5583 5606 5612 5614 5621 5620 5615 5585 5596 5605 5618 5623 5629 5630 5631 5633 5640 5645 5645 5642 5638 5636 5635 5633 5633 5631 5628 5625 5623 5625 5621 5618 5612 5609 5606 5603 5599 5594 5588 5584 5581
5610 5597 5603 5606 5615 5620 5621 5620 5620 5622 5619 5613 5625 5624 5624 5627 5624 5621 5623 5625 5631 5631 5630 5627 5625 5624 5624 5620 5620 5619 5617 5613 5609 5605 5602 5597 5594 5592 5589 5584 5579 5576 5571 5566
5596 5587 5600 5597 5611 5611 5614 5618 5616 5617 5619 5618 5624 5627 5631 5625 5624 5618 5613 5617 5622 5619 5620 5615 5611 5611 5609 5608 5604 5603 5600 5595 5595 5593 5589 5585 5583 5582 5576 5573 5567 5563 5557 5552
5594 5587 5584 5585 5601 5606 5604 5611 5621 5615 5615 5618 5619 5629 5625 5618 5613 5610 5613 5612 5610 5609 5607 5602 5592 5589 5585 5584 5584 5584 5583 5584 5582 5580 5576 5573 5571 5568 5563 5557 5553 5548 5543 5539
5589 5585 5577 5577 5589 5584 5608 5614 5621 5612 5608 5614 5614 5614 5611 5606 5596 5593 5598 5603 5597 5594 5588 5584 5579 5577 5573 5570 5570 5569 5572 5571 5569 5569 5566 5561 5557 5553 5548 5543 5539 5536 5532 5529
5593 5586 5569 5569 5571 5594 5599 5607 5613 5620 5599 5607 5607 5607 5604 5601 5597 5573 5569 5571 5572 5568 5568 5567 5564 5560 5557 5557 5554 5554 5556 5557 5557 5552 5547 5544 5541 5539 5536 5533 5528 5524 5521 5519
5589 5589 5580 5562 5579 5577 5600 5615 5620 5618 5592 5603 5608 5604 5604 5602 5578 5555 5553 5556 5553 5552 5553 5551 5549 5547 5545 5540 5540 5544 5542 5538 5537 5536 5535 5532 5530 5528 5525 5520 5517 5514 5512 5512
5580 5577 5576 5561 5557 5584 5611 5617 5620 5601 5599 5601 5597 5590 5591 5575 5565 5546 5544 5543 5544 5544 5540 5537 5535 5531 5530 5528 5525 5527 5527 5525 5524 5523 5522 5522 5520 5517 5513 5511 5507 5506 5506 5505
5585 5573 5555 5557 5568 5581 5605 5616 5610 5604 5596 5593 5579 5567 5558 5552 5544 5538 5536 5534 5531 5528 5525 5523 5518 5514 5512 5513 5516 5515 5513 5514 5514 5514 5513 5511 5508 5505 5503 5499 5498 5498 5501 5502
5580 5585 5575 5573 5578 5579 5590 5597 5597 5601 5596 5571 5566 5558 5556 5544 5534 5528 5522 5518 5515 5512 5509 5506 5504 5503 5503 5504 5506 5506 5505 5504 5503 5501 5499 5498 5497 5494 5493 5492 5496 5497 5497 5497
5582 5584 5572 5571 5565 5569 5574 5576 5578 5577 5570 5560 5553 5547 5542 5533 5525 5517 5512 5506 5502 5500 5497 5495 5494 5495 5495 5495 5494 5493 5493 5492 5492 5492 5492 5491 5489 5489 5489 5491 5492 5492 5493 5494
5577 5579 5562 5552 5557 5566 5560 5561 5561 5554 5552 5547 5539 5535 5528 5524 5514 5508 5500 5496 5492 5489 5487 5485 5484 5483 5483 5483 5484 5483 5483 5483 5483 5484 5485 5484 5484 5485 5486 5488 5489 5490 5490 5491
5566 5568 5568 5561 5569 5571 5546 5545 5552 5547 5536 5532 5528 5518 5514 5512 5503 5496 5491 5487 5483 5479 5478 5476 5475 5474 5475 5477 5477 5476 5476 5477 5477 5478 5479 5478 5479 5480 5483 5486 5488 5488 5487 5487